EN

Hourly Weather Torres Novas

Today, 11 April, Sunday

Time Temperature Precipitation Wind Pressure Humidity
00:00 +11°C° 0 mm 0 mps 753 mmHg 96%
01:00 +11°C° 0 mm 0 mps 753 mmHg 96%
02:00 +11°C° 0 mm 0 mps 753 mmHg 96%
03:00 +10°C° 0 mm 0 mps 754 mmHg 96%
04:00 +11°C° 0 mm 1 mps 754 mmHg 97%
05:00 +11°C° 0 mm 1 mps 754 mmHg 97%
06:00 +13°C° 0 mm 1 mps 755 mmHg 92%
07:00 +14°C° 0 mm 2 mps 755 mmHg 88%
08:00 +16°C° 0 mm 2 mps 756 mmHg 84%
09:00 +16°C° 0 mm 3 mps 756 mmHg 77%
10:00 +17°C° 0 mm 3 mps 756 mmHg 70%
11:00 +18°C° 0 mm 3 mps 756 mmHg 64%
12:00 +19°C° 0 mm 4 mps 756 mmHg 60%
13:00 +19°C° 0 mm 4 mps 756 mmHg 57%
14:00 +20°C° 0 mm 4 mps 756 mmHg 54%
15:00 +19°C° 0 mm 4 mps 756 mmHg 58%
16:00 +18°C° 0 mm 4 mps 757 mmHg 63%
17:00 +17°C° 0 mm 3 mps 757 mmHg 67%
18:00 +14°C° 0 mm 3 mps 757 mmHg 75%
19:00 +13°C° 0 mm 2 mps 758 mmHg 83%
20:00 +10°C° 0 mm 2 mps 759 mmHg 91%
21:00 +11°C° 0 mm 1 mps 759 mmHg 90%
22:00 +10°C° 0 mm 1 mps 759 mmHg 90%
23:00 +10°C° 0 mm 1 mps 759 mmHg 89%

Tomorrow, 12 April, Monday

Time Temperature Precipitation Wind Pressure Humidity
00:00 +10°C° 0 mm 1 mps 759 mmHg 89%
01:00 +9°C° 0 mm 0 mps 759 mmHg 89%
02:00 +9°C° 0 mm 0 mps 759 mmHg 88%
03:00 +10°C° 0 mm 1 mps 759 mmHg 89%
04:00 +9°C° 0 mm 2 mps 759 mmHg 90%
05:00 +9°C° 0 mm 2 mps 759 mmHg 91%
06:00 +11°C° 0 mm 3 mps 760 mmHg 82%
07:00 +13°C° 0 mm 4 mps 760 mmHg 74%
08:00 +14°C° 0 mm 5 mps 760 mmHg 65%
09:00 +16°C° 0 mm 5 mps 760 mmHg 61%
10:00 +19°C° 0 mm 4 mps 760 mmHg 56%
11:00 +21°C° 0 mm 4 mps 760 mmHg 51%
12:00 +21°C° 0 mm 4 mps 760 mmHg 50%
13:00 +21°C° 0 mm 3 mps 760 mmHg 48%
14:00 +23°C° 0 mm 2 mps 759 mmHg 47%
15:00 +21°C° 0 mm 2 mps 760 mmHg 53%
16:00 +20°C° 0 mm 2 mps 760 mmHg 58%
17:00 +20°C° 0 mm 1 mps 760 mmHg 64%
18:00 +19°C° 0 mm 1 mps 760 mmHg 69%
19:00 +16°C° 0 mm 1 mps 761 mmHg 73%
20:00 +15°C° 0 mm 1 mps 761 mmHg 77%
21:00 +15°C° 0 mm 1 mps 761 mmHg 76%
22:00 +15°C° 0 mm 1 mps 761 mmHg 76%
23:00 +14°C° 0 mm 1 mps 761 mmHg 75%

Day after tomorrow, 13 April, Tuesday

Time Temperature Precipitation Wind Pressure Humidity
00:00 +14°C° 0 mm 1 mps 760 mmHg 73%
01:00 +14°C° 0 mm 1 mps 760 mmHg 72%
02:00 +14°C° 0 mm 1 mps 760 mmHg 70%
03:00 +14°C° 0 mm 2 mps 760 mmHg 70%
04:00 +14°C° 0 mm 2 mps 760 mmHg 70%
05:00 +13°C° 0 mm 2 mps 760 mmHg 69%
06:00 +15°C° 0 mm 2 mps 760 mmHg 64%
07:00 +16°C° 0 mm 2 mps 760 mmHg 58%
08:00 +18°C° 0 mm 3 mps 761 mmHg 52%
09:00 +19°C° 0 mm 2 mps 760 mmHg 49%
10:00 +21°C° 0 mm 2 mps 760 mmHg 46%
11:00 +23°C° 0 mm 2 mps 760 mmHg 44%
12:00 +23°C° 0 mm 1 mps 759 mmHg 44%
13:00 +24°C° 0 mm 1 mps 759 mmHg 43%
14:00 +25°C° 0 mm 1 mps 758 mmHg 43%
15:00 +24°C° 0 mm 1 mps 758 mmHg 49%
16:00 +23°C° 0 mm 1 mps 758 mmHg 54%
17:00 +22°C° 0 mm 1 mps 758 mmHg 60%
18:00 +20°C° 0 mm 1 mps 758 mmHg 65%
19:00 +18°C° 0 mm 1 mps 759 mmHg 71%
20:00 +15°C° 0 mm 1 mps 759 mmHg 76%
21:00 +15°C° 0 mm 1 mps 758 mmHg 76%
22:00 +15°C° 0 mm 1 mps 758 mmHg 76%
23:00 +15°C° 0 mm 1 mps 758 mmHg 75%

14 April, Wednesday

Time Temperature Precipitation Wind Pressure Humidity
00:00 +15°C° 0 mm 1 mps 757 mmHg 74%
01:00 +15°C° 0 mm 1 mps 757 mmHg 72%
02:00 +15°C° 0 mm 1 mps 757 mmHg 71%
03:00 +15°C° 0 mm 1 mps 757 mmHg 71%
04:00 +14°C° 0 mm 1 mps 757 mmHg 70%
05:00 +14°C° 0 mm 1 mps 756 mmHg 70%
06:00 +16°C° 0 mm 1 mps 756 mmHg 65%
07:00 +17°C° 0 mm 2 mps 756 mmHg 60%
08:00 +19°C° 0 mm 2 mps 756 mmHg 55%
09:00 +20°C° 0 mm 2 mps 756 mmHg 53%
10:00 +21°C° 0 mm 2 mps 756 mmHg 50%
11:00 +23°C° 0 mm 2 mps 755 mmHg 47%
12:00 +21°C° 0 mm 2 mps 755 mmHg 50%
13:00 +22°C° 0 mm 1 mps 755 mmHg 53%
14:00 +22°C° 0 mm 1 mps 754 mmHg 56%
15:00 +20°C° 0.1 mm 2 mps 754 mmHg 64%
16:00 +18°C° 0.1 mm 2 mps 754 mmHg 71%
17:00 +17°C° 0.1 mm 2 mps 754 mmHg 78%
18:00 +17°C° 0.1 mm 2 mps 755 mmHg 82%
19:00 +16°C° 0.1 mm 2 mps 755 mmHg 86%
20:00 +15°C° 0.1 mm 2 mps 755 mmHg 89%
21:00 +15°C° 0.2 mm 2 mps 755 mmHg 90%
22:00 +15°C° 0.2 mm 2 mps 755 mmHg 90%
23:00 +15°C° 0.2 mm 2 mps 754 mmHg 91%

15 April, Thursday

Time Temperature Precipitation Wind Pressure Humidity
00:00 +15°C° 0.8 mm 1 mps 754 mmHg 92%
01:00 +14°C° 0.8 mm 1 mps 754 mmHg 94%
02:00 +14°C° 0.8 mm 1 mps 754 mmHg 95%
03:00 +14°C° 1.2 mm 1 mps 754 mmHg 96%
04:00 +14°C° 1.2 mm 1 mps 754 mmHg 96%
05:00 +14°C° 1.2 mm 1 mps 754 mmHg 97%
06:00 +15°C° 0.6 mm 1 mps 754 mmHg 96%
07:00 +15°C° 0.6 mm 1 mps 754 mmHg 96%
08:00 +15°C° 0.6 mm 1 mps 754 mmHg 95%
09:00 +15°C° 0.4 mm 1 mps 754 mmHg 93%
10:00 +16°C° 0.4 mm 2 mps 754 mmHg 91%
11:00 +16°C° 0.4 mm 2 mps 754 mmHg 89%
12:00 +16°C° 0.1 mm 2 mps 754 mmHg 88%
13:00 +16°C° 0.1 mm 2 mps 754 mmHg 86%
14:00 +16°C° 0.1 mm 2 mps 754 mmHg 84%
15:00 +16°C° 0.1 mm 2 mps 754 mmHg 86%
16:00 +16°C° 0.1 mm 1 mps 754 mmHg 88%
17:00 +15°C° 0.1 mm 1 mps 754 mmHg 89%
18:00 +15°C° 0 mm 1 mps 755 mmHg 90%
19:00 +15°C° 0 mm 1 mps 755 mmHg 91%
20:00 +14°C° 0 mm 1 mps 755 mmHg 92%
21:00 +14°C° 0 mm 1 mps 755 mmHg 92%
22:00 +14°C° 0 mm 1 mps 755 mmHg 93%
23:00 +14°C° 0 mm 1 mps 755 mmHg 93%

16 April, Friday

Time Temperature Precipitation Wind Pressure Humidity
00:00 +13°C° 0 mm 1 mps 755 mmHg 93%
01:00 +13°C° 0 mm 1 mps 755 mmHg 94%
02:00 +12°C° 0 mm 1 mps 755 mmHg 94%
03:00 +12°C° 0 mm 1 mps 755 mmHg 94%
04:00 +12°C° 0 mm 1 mps 755 mmHg 94%
05:00 +12°C° 0 mm 1 mps 755 mmHg 94%
06:00 +13°C° 0 mm 1 mps 755 mmHg 88%
07:00 +15°C° 0 mm 1 mps 755 mmHg 83%
08:00 +16°C° 0 mm 1 mps 756 mmHg 78%
09:00 +18°C° 0 mm 1 mps 756 mmHg 73%
10:00 +19°C° 0 mm 1 mps 755 mmHg 68%
11:00 +20°C° 0 mm 1 mps 755 mmHg 62%
12:00 +21°C° 0 mm 1 mps 755 mmHg 61%
13:00 +22°C° 0 mm 1 mps 754 mmHg 59%
14:00 +21°C° 0 mm 2 mps 754 mmHg 57%
15:00 +20°C° 0.1 mm 2 mps 754 mmHg 62%
16:00 +20°C° 0.1 mm 2 mps 754 mmHg 67%
17:00 +19°C° 0.1 mm 2 mps 754 mmHg 72%
18:00 +17°C° 0.1 mm 2 mps 754 mmHg 79%
19:00 +16°C° 0.1 mm 2 mps 755 mmHg 86%
20:00 +14°C° 0.1 mm 2 mps 755 mmHg 93%
21:00 +13°C° 0 mm 2 mps 755 mmHg 92%
22:00 +13°C° 0 mm 2 mps 755 mmHg 90%
23:00 +12°C° 0 mm 1 mps 755 mmHg 89%
Show more

We Need Your Consent

Meteoprog and our Service Providers may store and access personal data such as cookies, device identifiers or other similar technologies on your device and process such data to personalise content and ads, as well as provide social media features and to analyse the traffic.

  • Store and/or access information on your device

    Cookies, device identifiers or other information can be stored or accessed on your device for the purposes indicated above.

  • Personalised ads and content, ad and content measurement, audience insights, and products development

    Ads and content can be personalised based on a profile. More data can be added to better personalise ads and content. Ad and content performance can be measured. Insights about the audience who saw the ads and content can be derived. Such data can be used to develop or improve user’s experience, systems and software.

By clicking ‘I Agree’ you will allow the use of indicated cookies, device identifiers, web beacons or other similar technologies. Your settings can be changed in the browser on your device.

For certain purposes, legitimate interests may be relied on, rather than consent. You can read more about this in our Privacy and Cookie Policy.